T 2001 Apr. 23.1780 TT Marsden
q 3.061645 (2000.0) P Q
Peri. 3.5313 +0.3747505 +0.5563683
Node 289.8629 -0.8687730 -0.0685735
e 1.0 Incl. 52.0495 -0.3237214 +0.8281014
>From 68 observations 2001 May 22-June 20.
星図
光度変化
m1 = 9.0 + 5 logΔ + 10.0 log r
軌道要素は Dr. Brian G. Marsden の計算によるもので、
M.P.E.C. 2001-M22
に掲載されたものです。
星図は StellaNavigator Ver.2.0 for Windows
(アストロアーツ
編著 / アスキー出版局刊) で作成したものです。
光度グラフはComet for
Windowsで作成したものです。
Copyright(C) Seiichi Yoshida (comet@aerith.net). All rights reserved.